Time,TemperatureF,DewpointF,PressureIn,WindDirection,WindDirectionDegrees,WindSpeedMPH,WindSpeedGustMPH,Humidity,HourlyPrecipIn,Conditions,Clouds,dailyrainin,SolarRadiationWatts/m^2,SoftwareType,DateUTC
2013-09-28 00:04:00,73.5,62.7,29.61,SSE,151,4.0,12.0,69,0.00,,SKC,0.00,0.00,VWS V14.00,2013-09-28 05:04:00,
2013-09-28 00:09:00,73.4,63.0,29.61,SE,140,5.0,12.0,70,0.00,,SKC,0.00,0.00,VWS V14.00,2013-09-28 05:09:00,
2013-09-28 00:14:00,73.3,62.9,29.61,SSE,157,3.0,7.0,70,0.00,,SKC,0.00,0.00,VWS V14.00,2013-09-28 05:14:00,
2013-09-28 00:19:00,73.2,62.8,29.61,SSE,148,11.0,12.0,70,0.00,,SKC,0.00,0.00,VWS V14.00,2013-09-28 05:19:00,
2013-09-28 00:24:00,73.0,62.7,29.60,SSE,168,3.0,11.0,70,0.00,,SKC,0.00,0.00,VWS V14.00,2013-09-28 05:24:00,
2013-09-28 00:29:00,72.9,62.5,29.60,SE,132,13.0,13.0,70,0.00,,SKC,0.00,0.00,VWS V14.00,2013-09-28 05:29:00,
2013-09-28 00:34:00,72.9,63.0,29.60,SSE,157,9.0,14.0,71,0.00,,SKC,0.00,0.00,VWS V14.00,2013-09-28 05:34:00,
2013-09-28 00:39:00,72.8,62.9,29.61,SSE,157,10.0,16.0,71,0.00,,SKC,0.00,0.00,VWS V14.00,2013-09-28 05:39:00,
2013-09-28 00:44:00,72.6,62.7,29.60,SE,128,5.0,14.0,71,0.00,,SKC,0.00,0.00,VWS V14.00,2013-09-28 05:44:00,
2013-09-28 00:49:00,72.5,63.0,29.60,South,185,6.0,15.0,72,0.00,,SKC,0.00,0.00,VWS V14.00,2013-09-28 05:49:00,
2013-09-28 00:54:00,72.4,62.9,29.59,ESE,117,5.0,7.0,72,0.00,,SKC,0.00,0.00,VWS V14.00,2013-09-28 05:54:00,
2013-09-28 00:59:00,72.2,62.7,29.60,SSW,209,9.0,9.0,72,0.00,,SKC,0.00,0.00,VWS V14.00,2013-09-28 05:59:00,
2013-09-28 01:04:00,72.2,62.7,29.60,SE,132,5.0,11.0,72,0.00,,SKC,0.00,0.00,VWS V14.00,2013-09-28 06:04:00,
2013-09-28 01:09:00,72.0,62.9,29.60,SSE,166,6.0,9.0,73,0.00,,SKC,0.00,0.00,VWS V14.00,2013-09-28 06:09:00,
2013-09-28 01:14:00,71.9,62.8,29.59,SSE,164,3.0,6.0,73,0.00,,SKC,0.00,0.00,VWS V14.00,2013-09-28 06:14:00,
2013-09-28 01:21:00,71.7,63.0,29.60,SSW,195,4.0,6.0,74,0.00,,SKC,0.00,0.00,VWS V14.00,2013-09-28 06:21:00,
2013-09-28 01:26:00,71.6,62.9,29.60,SSW,205,5.0,11.0,74,0.00,,SKC,0.00,0.00,VWS V14.00,2013-09-28 06:26:00,
2013-09-28 01:31:00,71.4,62.7,29.60,SSW,203,4.0,9.0,74,0.00,,SKC,0.00,0.00,VWS V14.00,2013-09-28 06:31:00,
2013-09-28 01:36:00,71.3,63.0,29.60,SSE,160,2.0,11.0,75,0.00,,SKC,0.00,0.00,VWS V14.00,2013-09-28 06:36:00,
2013-09-28 01:41:00,71.2,62.9,29.60,SSE,163,11.0,11.0,75,0.00,,SKC,0.00,0.00,VWS V14.00,2013-09-28 06:41:00,
2013-09-28 01:46:00,71.1,62.8,29.60,SSW,196,9.0,10.0,75,0.00,,SKC,0.00,0.00,VWS V14.00,2013-09-28 06:46:00,
2013-09-28 01:51:00,71.0,63.1,29.59,South,175,9.0,12.0,76,0.00,,SKC,0.00,0.00,VWS V14.00,2013-09-28 06:51:00,
2013-09-28 01:56:00,71.0,63.1,29.59,SSE,150,3.0,9.0,76,0.00,,SKC,0.00,0.00,VWS V14.00,2013-09-28 06:56:00,
2013-09-28 02:01:00,70.9,63.0,29.58,SE,142,6.0,11.0,76,0.00,,SKC,0.00,0.00,VWS V14.00,2013-09-28 07:01:00,
2013-09-28 02:06:00,70.8,62.9,29.58,SE,131,5.0,11.0,76,0.00,,SKC,0.00,0.00,VWS V14.00,2013-09-28 07:06:00,
2013-09-28 02:11:00,70.8,62.9,29.58,South,177,6.0,11.0,76,0.00,,SKC,0.00,0.00,VWS V14.00,2013-09-28 07:11:00,
2013-09-28 02:16:00,70.7,62.8,29.58,South,181,3.0,13.0,76,0.00,,SKC,0.00,0.00,VWS V14.00,2013-09-28 07:16:00,
2013-09-28 02:21:00,70.6,62.7,29.58,South,173,6.0,12.0,76,0.00,,SKC,0.00,0.00,VWS V14.00,2013-09-28 07:21:00,
2013-09-28 02:26:00,70.5,62.6,29.58,SSE,152,8.0,11.0,76,0.00,,SKC,0.00,0.00,VWS V14.00,2013-09-28 07:26:00,
2013-09-28 02:31:00,70.6,62.7,29.58,SSE,157,5.0,11.0,76,0.00,,SKC,0.00,0.00,VWS V14.00,2013-09-28 07:31:00,
2013-09-28 02:36:00,70.5,62.6,29.57,South,175,3.0,11.0,76,0.00,,SKC,0.00,0.00,VWS V14.00,2013-09-28 07:36:00,
2013-09-28 02:41:00,70.6,62.7,29.57,South,189,3.0,13.0,76,0.00,,SKC,0.00,0.00,VWS V14.00,2013-09-28 07:41:00,
2013-09-28 02:46:00,70.7,62.8,29.57,South,180,7.0,12.0,76,0.00,,SKC,0.00,0.00,VWS V14.00,2013-09-28 07:46:00,
2013-09-28 02:51:00,70.7,62.8,29.57,SE,137,6.0,23.0,76,0.00,,SKC,0.00,0.00,VWS V14.00,2013-09-28 07:51:00,
2013-09-28 02:56:00,70.8,62.9,29.56,SE,129,9.0,15.0,76,0.00,,SKC,0.00,0.00,VWS V14.00,2013-09-28 07:56:00,
2013-09-28 03:01:00,70.9,63.0,29.56,SE,130,7.0,15.0,76,0.00,,SKC,0.00,0.00,VWS V14.00,2013-09-28 08:01:00,
2013-09-28 03:06:00,70.8,62.9,29.56,South,175,4.0,13.0,76,0.00,,SKC,0.00,0.00,VWS V14.00,2013-09-28 08:06:00,
2013-09-28 03:11:00,70.8,62.9,29.56,SSE,151,11.0,17.0,76,0.00,,SKC,0.00,0.00,VWS V14.00,2013-09-28 08:11:00,
2013-09-28 03:16:00,70.8,62.9,29.56,SSE,168,14.0,16.0,76,0.00,,SKC,0.00,0.00,VWS V14.00,2013-09-28 08:16:00,
2013-09-28 03:21:00,70.7,62.8,29.55,ESE,121,11.0,18.0,76,0.00,,SKC,0.00,0.00,VWS V14.00,2013-09-28 08:21:00,
2013-09-28 03:26:00,70.6,62.7,29.55,SSE,153,11.0,19.0,76,0.00,,SKC,0.00,0.00,VWS V14.00,2013-09-28 08:26:00,
2013-09-28 03:32:00,70.4,62.5,29.55,SE,136,11.0,13.0,76,0.00,,SKC,0.00,0.00,VWS V14.00,2013-09-28 08:32:00,
2013-09-28 03:37:00,70.4,62.5,29.54,ESE,112,10.0,16.0,76,0.00,,SKC,0.00,0.00,VWS V14.00,2013-09-28 08:37:00,
2013-09-28 03:42:00,70.3,62.4,29.54,SE,134,8.0,22.0,76,0.00,,SKC,0.00,0.00,VWS V14.00,2013-09-28 08:42:00,
2013-09-28 03:47:00,70.3,62.8,29.54,SE,133,9.0,18.0,77,0.00,,SKC,0.00,0.00,VWS V14.00,2013-09-28 08:47:00,
2013-09-28 03:52:00,70.3,62.4,29.53,SSE,165,11.0,17.0,76,0.00,,SKC,0.00,0.00,VWS V14.00,2013-09-28 08:52:00,
2013-09-28 03:57:00,70.3,62.4,29.54,SE,135,18.0,21.0,76,0.00,,SKC,0.00,0.00,VWS V14.00,2013-09-28 08:57:00,
2013-09-28 04:02:00,70.3,62.4,29.53,ESE,115,10.0,18.0,76,0.00,,SKC,0.00,0.00,VWS V14.00,2013-09-28 09:02:00,
2013-09-28 04:07:00,70.2,62.7,29.53,SE,130,9.0,18.0,77,0.00,,SKC,0.00,0.00,VWS V14.00,2013-09-28 09:07:00,
2013-09-28 04:12:00,70.1,62.6,29.53,SE,142,14.0,15.0,77,0.00,,SKC,0.00,0.00,VWS V14.00,2013-09-28 09:12:00,
2013-09-28 04:17:00,70.1,62.6,29.53,SE,142,14.0,22.0,77,0.00,,SKC,0.00,0.00,VWS V14.00,2013-09-28 09:17:00,
2013-09-28 04:22:00,70.0,62.5,29.53,SE,126,7.0,19.0,77,0.00,,SKC,0.00,0.00,VWS V14.00,2013-09-28 09:22:00,
2013-09-28 04:27:00,69.9,62.4,29.53,SE,134,14.0,18.0,77,0.00,,SKC,0.00,0.00,VWS V14.00,2013-09-28 09:27:00,
2013-09-28 04:32:00,69.8,62.3,29.53,South,174,11.0,14.0,77,0.00,,SKC,0.00,0.00,VWS V14.00,2013-09-28 09:32:00,
2013-09-28 04:37:00,69.7,62.2,29.53,South,188,7.0,18.0,77,0.00,,SKC,0.00,0.00,VWS V14.00,2013-09-28 09:37:00,
2013-09-28 04:42:00,69.5,62.0,29.52,South,171,6.0,16.0,77,0.00,,SKC,0.00,0.00,VWS V14.00,2013-09-28 09:42:00,
2013-09-28 04:47:00,69.5,62.3,29.52,ESE,114,6.0,16.0,78,0.00,,SKC,0.00,0.00,VWS V14.00,2013-09-28 09:47:00,
2013-09-28 04:52:00,69.4,62.2,29.52,SSE,162,5.0,25.0,78,0.00,,SKC,0.00,0.00,VWS V14.00,2013-09-28 09:52:00,
2013-09-28 04:57:00,69.4,62.2,29.52,South,191,11.0,14.0,78,0.00,,SKC,0.00,0.00,VWS V14.00,2013-09-28 09:57:00,
2013-09-28 05:02:00,69.3,62.2,29.51,South,176,4.0,14.0,78,0.00,,SKC,0.00,0.00,VWS V14.00,2013-09-28 10:02:00,
2013-09-28 05:07:00,69.2,62.1,29.52,SSE,165,6.0,15.0,78,0.00,,SKC,0.00,0.00,VWS V14.00,2013-09-28 10:07:00,
2013-09-28 05:12:00,69.2,62.1,29.52,South,177,4.0,19.0,78,0.00,,SKC,0.00,0.00,VWS V14.00,2013-09-28 10:12:00,
2013-09-28 05:17:00,69.1,62.3,29.52,SSW,197,7.0,16.0,79,0.00,,SKC,0.00,0.00,VWS V14.00,2013-09-28 10:17:00,
2013-09-28 05:22:00,69.0,62.2,29.52,SSE,159,14.0,15.0,79,0.00,,SKC,0.00,0.00,VWS V14.00,2013-09-28 10:22:00,
2013-09-28 05:27:00,69.0,62.2,29.52,SE,142,4.0,14.0,79,0.00,,SKC,0.00,0.00,VWS V14.00,2013-09-28 10:27:00,
2013-09-28 05:32:00,68.9,62.1,29.52,South,173,3.0,13.0,79,0.00,,SKC,0.00,0.00,VWS V14.00,2013-09-28 10:32:00,
2013-09-28 05:37:00,68.8,62.0,29.52,SE,132,7.0,13.0,79,0.00,,SKC,0.00,0.00,VWS V14.00,2013-09-28 10:37:00,
2013-09-28 05:42:00,68.6,62.2,29.52,SSE,155,7.0,13.0,80,0.00,,SKC,0.00,0.00,VWS V14.00,2013-09-28 10:42:00,
2013-09-28 05:47:00,68.4,62.7,29.51,South,191,6.0,15.0,82,0.01,,SKC,0.01,0.00,VWS V14.00,2013-09-28 10:47:00,
2013-09-28 05:52:00,67.9,62.5,29.52,SSW,202,5.0,14.0,83,0.01,,SKC,0.01,0.00,VWS V14.00,2013-09-28 10:52:00,
2013-09-28 05:57:00,67.2,62.5,29.51,SSE,150,7.0,14.0,85,0.02,,SKC,0.02,0.00,VWS V14.00,2013-09-28 10:57:00,
2013-09-28 06:02:00,66.6,62.6,29.51,South,191,10.0,14.0,87,0.04,,SKC,0.04,0.00,VWS V14.00,2013-09-28 11:02:00,
2013-09-28 06:07:00,66.2,62.5,29.51,South,181,2.0,6.0,88,0.06,,SKC,0.06,0.00,VWS V14.00,2013-09-28 11:07:00,
2013-09-28 06:12:00,65.7,62.0,29.50,SSW,200,4.0,10.0,88,0.06,,SKC,0.06,0.00,VWS V14.00,2013-09-28 11:12:00,
2013-09-28 06:17:00,65.3,62.0,29.51,South,181,1.0,7.0,89,0.08,,SKC,0.08,0.00,VWS V14.00,2013-09-28 11:17:00,
2013-09-28 06:23:00,64.8,61.8,29.51,SSE,165,1.0,7.0,90,0.08,,SKC,0.08,0.00,VWS V14.00,2013-09-28 11:23:00,
2013-09-28 06:28:00,64.5,61.8,29.51,SSE,147,1.0,6.0,91,0.09,,SKC,0.09,0.00,VWS V14.00,2013-09-28 11:28:00,
2013-09-28 06:33:00,64.1,61.4,29.51,SSE,152,3.0,7.0,91,0.10,,SKC,0.10,0.00,VWS V14.00,2013-09-28 11:33:00,
2013-09-28 06:38:00,63.9,61.5,29.51,SSE,159,3.0,10.0,92,0.10,,SKC,0.10,0.00,VWS V14.00,2013-09-28 11:38:00,
2013-09-28 06:43:00,63.8,61.7,29.51,SW,225,3.0,10.0,93,0.11,,SKC,0.11,0.00,VWS V14.00,2013-09-28 11:43:00,
2013-09-28 06:48:00,63.8,61.7,29.51,South,180,4.0,11.0,93,0.12,,SKC,0.12,0.00,VWS V14.00,2013-09-28 11:48:00,
2013-09-28 06:53:00,63.8,62.0,29.51,SE,140,6.0,11.0,94,0.11,,SKC,0.12,0.00,VWS V14.00,2013-09-28 11:53:00,
2013-09-28 06:58:00,63.8,62.0,29.50,SSE,163,4.0,12.0,94,0.12,,SKC,0.13,0.00,VWS V14.00,2013-09-28 11:58:00,
2013-09-28 07:03:00,63.8,62.0,29.50,South,175,9.0,12.0,94,0.10,,SKC,0.13,0.00,VWS V14.00,2013-09-28 12:03:00,
2013-09-28 07:08:00,63.9,62.1,29.50,SSE,155,4.0,12.0,94,0.08,,SKC,0.13,0.00,VWS V14.00,2013-09-28 12:08:00,
2013-09-28 07:13:00,63.9,62.4,29.50,SE,138,5.0,12.0,95,0.07,,SKC,0.13,0.00,VWS V14.00,2013-09-28 12:13:00,
2013-09-28 07:18:00,63.9,62.4,29.50,South,182,5.0,12.0,95,0.06,,SKC,0.13,0.00,VWS V14.00,2013-09-28 12:18:00,
2013-09-28 07:23:00,63.9,62.4,29.50,South,180,5.0,11.0,95,0.06,,SKC,0.14,0.00,VWS V14.00,2013-09-28 12:23:00,
2013-09-28 07:28:00,63.9,62.4,29.50,South,180,5.0,10.0,95,0.05,,SKC,0.14,0.00,VWS V14.00,2013-09-28 12:28:00,
2013-09-28 07:33:00,63.9,62.4,29.50,SSW,211,3.0,12.0,95,0.05,,SKC,0.14,0.00,VWS V14.00,2013-09-28 12:33:00,
2013-09-28 07:38:00,63.5,61.4,29.51,SW,222,6.0,11.0,93,0.05,,SKC,0.15,0.00,VWS V14.00,2013-09-28 12:38:00,
2013-09-28 07:43:00,62.6,59.9,29.51,WNW,285,7.0,11.0,91,0.05,,SKC,0.16,0.00,VWS V14.00,2013-09-28 12:43:00,
2013-09-28 07:48:00,61.7,58.7,29.52,WSW,256,5.0,7.0,90,0.06,,SKC,0.17,0.00,VWS V14.00,2013-09-28 12:48:00,
2013-09-28 07:53:00,60.9,58.3,29.52,SSW,211,3.0,12.0,91,0.07,,SKC,0.19,0.00,VWS V14.00,2013-09-28 12:53:00,
2013-09-28 07:58:00,60.2,57.6,29.52,WNW,283,3.0,11.0,91,0.07,,SKC,0.19,0.00,VWS V14.00,2013-09-28 12:58:00,
2013-09-28 08:03:00,59.6,57.0,29.51,WSW,256,4.0,9.0,91,0.07,,SKC,0.20,5.00,VWS V14.00,2013-09-28 13:03:00,
2013-09-28 08:08:00,58.9,56.3,29.52,SW,236,4.0,10.0,91,0.07,,SKC,0.20,5.00,VWS V14.00,2013-09-28 13:08:00,
2013-09-28 08:13:00,58.2,55.6,29.52,SW,227,5.0,10.0,91,0.08,,SKC,0.21,0.00,VWS V14.00,2013-09-28 13:13:00,
2013-09-28 08:18:00,57.4,54.5,29.52,WNW,288,1.0,9.0,90,0.08,,SKC,0.21,7.00,VWS V14.00,2013-09-28 13:18:00,
2013-09-28 08:23:00,56.8,54.2,29.52,WNW,288,8.0,11.0,91,0.08,,SKC,0.21,11.00,VWS V14.00,2013-09-28 13:23:00,
2013-09-28 08:28:00,56.2,53.9,29.52,SW,217,12.0,12.0,92,0.08,,SKC,0.22,9.00,VWS V14.00,2013-09-28 13:28:00,
2013-09-28 08:33:00,55.6,53.3,29.52,WSW,250,4.0,4.0,92,0.09,,SKC,0.23,12.00,VWS V14.00,2013-09-28 13:33:00,
2013-09-28 08:38:00,55.3,53.3,29.53,SW,225,4.0,4.0,93,0.08,,SKC,0.23,7.00,VWS V14.00,2013-09-28 13:38:00,
2013-09-28 08:43:00,55.1,53.1,29.53,WNW,286,12.0,12.0,93,0.07,,SKC,0.23,11.00,VWS V14.00,2013-09-28 13:43:00,
2013-09-28 08:48:00,54.6,52.3,29.54,WSW,246,2.0,4.0,92,0.07,,SKC,0.24,9.00,VWS V14.00,2013-09-28 13:48:00,
2013-09-28 08:53:00,54.3,52.3,29.54,SSW,196,2.0,6.0,93,0.06,,SKC,0.25,14.00,VWS V14.00,2013-09-28 13:53:00,
2013-09-28 08:58:00,54.1,52.1,29.53,NW,310,4.0,11.0,93,0.07,,SKC,0.26,12.00,VWS V14.00,2013-09-28 13:58:00,
2013-09-28 09:03:00,53.8,51.8,29.53,NNW,329,8.0,9.0,93,0.07,,SKC,0.27,11.00,VWS V14.00,2013-09-28 14:03:00,
2013-09-28 09:08:00,53.5,51.5,29.52,West,273,3.0,6.0,93,0.07,,SKC,0.27,14.00,VWS V14.00,2013-09-28 14:08:00,
2013-09-28 09:13:00,53.3,51.3,29.52,NNW,339,7.0,10.0,93,0.06,,SKC,0.27,28.00,VWS V14.00,2013-09-28 14:13:00,
2013-09-28 09:19:00,53.1,51.4,29.53,West,259,6.0,10.0,94,0.06,,SKC,0.27,14.00,VWS V14.00,2013-09-28 14:19:00,
2013-09-28 09:24:00,53.1,51.4,29.54,West,277,4.0,5.0,94,0.06,,SKC,0.27,12.00,VWS V14.00,2013-09-28 14:24:00,
2013-09-28 09:29:00,53.0,51.3,29.55,West,274,2.0,6.0,94,0.05,,SKC,0.27,16.00,VWS V14.00,2013-09-28 14:29:00,
2013-09-28 09:34:00,52.9,51.2,29.55,West,267,6.0,6.0,94,0.04,,SKC,0.27,14.00,VWS V14.00,2013-09-28 14:34:00,
2013-09-28 09:39:00,52.9,51.2,29.56,WSW,257,3.0,12.0,94,0.04,,SKC,0.27,19.00,VWS V14.00,2013-09-28 14:39:00,
2013-09-28 09:44:00,52.9,51.2,29.57,SW,234,4.0,11.0,94,0.04,,SKC,0.27,9.00,VWS V14.00,2013-09-28 14:44:00,
2013-09-28 09:49:00,52.9,51.2,29.57,NNW,338,4.0,7.0,94,0.03,,SKC,0.27,14.00,VWS V14.00,2013-09-28 14:49:00,
2013-09-28 09:54:00,52.9,51.5,29.57,West,265,5.0,7.0,95,0.03,,SKC,0.28,12.00,VWS V14.00,2013-09-28 14:54:00,
2013-09-28 09:59:00,52.9,51.5,29.58,West,270,1.0,5.0,95,0.02,,SKC,0.28,9.00,VWS V14.00,2013-09-28 14:59:00,
2013-09-28 10:04:00,52.9,51.5,29.58,WSW,238,4.0,5.0,95,0.01,,SKC,0.28,47.00,VWS V14.00,2013-09-28 15:04:00,
2013-09-28 10:09:00,52.9,51.5,29.58,West,265,5.0,8.0,95,0.01,,SKC,0.28,47.00,VWS V14.00,2013-09-28 15:09:00,
2013-09-28 10:14:00,52.9,51.5,29.58,North,349,2.0,6.0,95,0.02,,SKC,0.29,83.00,VWS V14.00,2013-09-28 15:14:00,
2013-09-28 10:19:00,52.9,51.5,29.59,NW,325,2.0,4.0,95,0.04,,SKC,0.31,46.00,VWS V14.00,2013-09-28 15:19:00,
2013-09-28 10:24:00,52.9,51.5,29.59,WNW,302,11.0,11.0,95,0.07,,SKC,0.34,58.00,VWS V14.00,2013-09-28 15:24:00,
2013-09-28 10:29:00,52.8,51.4,29.59,NW,319,4.0,11.0,95,0.08,,SKC,0.35,39.00,VWS V14.00,2013-09-28 15:29:00,
2013-09-28 10:34:00,52.8,51.4,29.59,WSW,237,6.0,12.0,95,0.08,,SKC,0.35,65.00,VWS V14.00,2013-09-28 15:34:00,
2013-09-28 10:39:00,52.8,51.4,29.59,West,281,11.0,13.0,95,0.09,,SKC,0.36,74.00,VWS V14.00,2013-09-28 15:39:00,
2013-09-28 10:44:00,52.6,51.2,29.60,WNW,302,3.0,8.0,95,0.09,,SKC,0.36,49.00,VWS V14.00,2013-09-28 15:44:00,
2013-09-28 10:49:00,52.6,51.2,29.60,NNE,14,6.0,16.0,95,0.09,,SKC,0.36,107.00,VWS V14.00,2013-09-28 15:49:00,
2013-09-28 10:54:00,52.6,51.2,29.61,WNW,302,2.0,5.0,95,0.08,,SKC,0.36,77.00,VWS V14.00,2013-09-28 15:54:00,
2013-09-28 10:59:00,52.6,51.2,29.62,SW,229,2.0,8.0,95,0.09,,SKC,0.37,97.00,VWS V14.00,2013-09-28 15:59:00,
2013-09-28 11:04:00,52.6,51.2,29.62,WNW,289,3.0,4.0,95,0.10,,SKC,0.38,102.00,VWS V14.00,2013-09-28 16:04:00,
2013-09-28 11:09:00,52.6,51.2,29.62,NNE,16,1.0,3.0,95,0.10,,SKC,0.38,137.00,VWS V14.00,2013-09-28 16:09:00,
2013-09-28 11:14:00,52.6,51.2,29.62,SW,223,1.0,1.0,95,0.09,,SKC,0.38,135.00,VWS V14.00,2013-09-28 16:14:00,
2013-09-28 11:19:00,52.6,51.2,29.62,SW,223,1.0,1.0,95,0.08,,SKC,0.38,135.00,VWS V14.00,2013-09-28 16:19:00,
2013-09-28 11:24:00,52.6,51.2,29.62,SW,223,1.0,1.0,95,0.05,,SKC,0.38,135.00,VWS V14.00,2013-09-28 16:24:00,
2013-09-28 11:29:00,52.6,51.2,29.63,SW,223,1.0,1.0,95,0.03,,SKC,0.38,135.00,VWS V14.00,2013-09-28 16:29:00,
2013-09-28 11:34:00,52.6,51.2,29.63,SW,223,1.0,1.0,95,0.03,,SKC,0.38,135.00,VWS V14.00,2013-09-28 16:34:00,
2013-09-28 11:39:00,52.6,51.2,29.62,SW,223,1.0,1.0,95,0.03,,SKC,0.38,135.00,VWS V14.00,2013-09-28 16:39:00,
2013-09-28 11:44:00,52.6,51.2,29.63,SW,223,1.0,1.0,95,0.02,,SKC,0.38,135.00,VWS V14.00,2013-09-28 16:44:00,
2013-09-28 11:49:00,52.6,51.2,29.64,SW,223,1.0,1.0,95,0.02,,SKC,0.38,135.00,VWS V14.00,2013-09-28 16:49:00,
2013-09-28 11:54:00,52.6,51.2,29.64,SW,223,1.0,1.0,95,0.02,,SKC,0.38,135.00,VWS V14.00,2013-09-28 16:54:00,
2013-09-28 11:59:00,52.6,51.2,29.63,SW,223,1.0,1.0,95,0.01,,SKC,0.38,135.00,VWS V14.00,2013-09-28 16:59:00,
2013-09-28 12:04:00,52.6,51.2,29.63,SW,223,1.0,1.0,95,0.00,,SKC,0.38,135.00,VWS V14.00,2013-09-28 17:04:00,
2013-09-28 12:09:00,52.6,51.2,29.64,SW,223,1.0,1.0,95,0.00,,SKC,0.38,135.00,VWS V14.00,2013-09-28 17:09:00,
2013-09-28 12:14:00,52.6,51.2,29.64,SW,223,1.0,1.0,95,0.00,,SKC,0.38,135.00,VWS V14.00,2013-09-28 17:14:00,
2013-09-28 12:19:00,52.6,51.2,29.64,SW,223,1.0,1.0,95,0.00,,SKC,0.38,135.00,VWS V14.00,2013-09-28 17:19:00,
2013-09-28 12:24:00,52.6,51.2,29.64,SW,223,1.0,1.0,95,0.00,,SKC,0.38,135.00,VWS V14.00,2013-09-28 17:24:00,
2013-09-28 12:29:00,52.6,51.2,29.64,SW,223,1.0,1.0,95,0.00,,SKC,0.38,135.00,VWS V14.00,2013-09-28 17:29:00,
2013-09-28 12:34:00,52.6,51.2,29.64,SW,223,1.0,1.0,95,0.00,,SKC,0.38,135.00,VWS V14.00,2013-09-28 17:34:00,
2013-09-28 12:40:00,52.6,51.2,29.64,SW,223,1.0,1.0,95,0.00,,SKC,0.38,135.00,VWS V14.00,2013-09-28 17:40:00,
2013-09-28 12:45:00,52.6,51.2,29.64,SW,223,1.0,1.0,95,0.00,,SKC,0.38,135.00,VWS V14.00,2013-09-28 17:45:00,
2013-09-28 12:50:00,52.6,51.2,29.65,SW,223,1.0,1.0,95,0.00,,SKC,0.38,135.00,VWS V14.00,2013-09-28 17:50:00,
2013-09-28 12:55:00,52.6,51.2,29.65,SW,223,1.0,1.0,95,0.00,,SKC,0.38,135.00,VWS V14.00,2013-09-28 17:55:00,
2013-09-28 13:00:00,52.6,51.2,29.65,SW,223,1.0,1.0,95,0.00,,SKC,0.38,135.00,VWS V14.00,2013-09-28 18:00:00,
2013-09-28 13:05:00,55.9,51.8,29.66,West,267,15.0,18.0,86,0.00,,SKC,0.38,190.00,VWS V14.00,2013-09-28 18:05:00,
2013-09-28 13:10:00,55.9,51.8,29.66,WNW,284,5.0,12.0,86,0.00,,SKC,0.38,171.00,VWS V14.00,2013-09-28 18:10:00,
2013-09-28 13:15:00,55.8,51.4,29.66,West,267,10.0,15.0,85,0.00,,SKC,0.38,195.00,VWS V14.00,2013-09-28 18:15:00,
2013-09-28 13:20:00,55.8,51.4,29.66,NNW,348,7.0,11.0,85,0.00,,SKC,0.38,223.00,VWS V14.00,2013-09-28 18:20:00,
2013-09-28 13:25:00,55.8,51.4,29.66,NW,322,5.0,17.0,85,0.00,,SKC,0.38,192.00,VWS V14.00,2013-09-28 18:25:00,
2013-09-28 13:30:00,55.8,51.0,29.66,NW,315,6.0,15.0,84,0.00,,SKC,0.38,327.00,VWS V14.00,2013-09-28 18:30:00,
2013-09-28 13:35:00,56.1,51.7,29.66,WSW,240,3.0,6.0,85,0.00,,SKC,0.38,327.00,VWS V14.00,2013-09-28 18:35:00,
2013-09-28 13:40:00,56.4,51.3,29.67,NW,317,4.0,9.0,83,0.00,,SKC,0.38,107.00,VWS V14.00,2013-09-28 18:40:00,
2013-09-28 13:45:00,56.5,51.4,29.67,WNW,284,4.0,8.0,83,0.00,,SKC,0.38,209.00,VWS V14.00,2013-09-28 18:45:00,
2013-09-28 13:50:00,56.5,51.4,29.67,North,360,2.0,14.0,83,0.00,,SKC,0.38,255.00,VWS V14.00,2013-09-28 18:50:00,
2013-09-28 13:55:00,56.5,51.1,29.67,West,276,5.0,15.0,82,0.00,,SKC,0.38,243.00,VWS V14.00,2013-09-28 18:55:00,
2013-09-28 14:00:00,56.5,51.1,29.67,West,277,4.0,9.0,82,0.00,,SKC,0.38,91.00,VWS V14.00,2013-09-28 19:00:00,
2013-09-28 14:05:00,56.3,50.5,29.67,NNW,337,7.0,15.0,81,0.00,,SKC,0.38,172.00,VWS V14.00,2013-09-28 19:05:00,
2013-09-28 14:10:00,56.3,51.2,29.67,WSW,241,6.0,10.0,83,0.00,,SKC,0.38,146.00,VWS V14.00,2013-09-28 19:10:00,
2013-09-28 14:15:00,56.4,50.3,29.67,WSW,240,5.0,13.0,80,0.00,,SKC,0.38,162.00,VWS V14.00,2013-09-28 19:15:00,
2013-09-28 14:20:00,56.4,51.0,29.67,WNW,284,10.0,10.0,82,0.00,,SKC,0.38,309.00,VWS V14.00,2013-09-28 19:20:00,
2013-09-28 14:25:00,56.4,50.3,29.68,WNW,296,11.0,12.0,80,0.00,,SKC,0.38,195.00,VWS V14.00,2013-09-28 19:25:00,
2013-09-28 14:30:00,56.4,50.0,29.68,WSW,252,12.0,17.0,79,0.00,,SKC,0.38,139.00,VWS V14.00,2013-09-28 19:30:00,
2013-09-28 14:35:00,56.3,50.2,29.68,West,263,6.0,13.0,80,0.00,,SKC,0.38,90.00,VWS V14.00,2013-09-28 19:35:00,
2013-09-28 14:40:00,56.1,50.4,29.69,NW,319,3.0,7.0,81,0.00,,SKC,0.38,83.00,VWS V14.00,2013-09-28 19:40:00,
2013-09-28 14:45:00,55.9,49.8,29.69,WSW,242,2.0,9.0,80,0.00,,SKC,0.38,86.00,VWS V14.00,2013-09-28 19:45:00,
2013-09-28 14:50:00,55.8,50.4,29.69,WSW,248,6.0,6.0,82,0.00,,SKC,0.38,128.00,VWS V14.00,2013-09-28 19:50:00,
2013-09-28 14:55:00,55.8,50.4,29.69,WSW,248,1.0,11.0,82,0.00,,SKC,0.38,229.00,VWS V14.00,2013-09-28 19:55:00,
2013-09-28 15:00:00,56.2,50.8,29.69,WSW,241,4.0,12.0,82,0.00,,SKC,0.38,179.00,VWS V14.00,2013-09-28 20:00:00,
2013-09-28 15:05:00,56.4,50.3,29.70,SSW,213,6.0,6.0,80,0.00,,SKC,0.38,149.00,VWS V14.00,2013-09-28 20:05:00,
2013-09-28 15:10:00,56.6,49.8,29.70,West,261,12.0,18.0,78,0.00,,SKC,0.38,313.00,VWS V14.00,2013-09-28 20:10:00,
2013-09-28 15:15:00,56.9,49.8,29.70,WNW,293,12.0,16.0,77,0.00,,SKC,0.38,371.00,VWS V14.00,2013-09-28 20:15:00,
2013-09-28 15:20:00,57.3,50.2,29.71,NNW,337,6.0,10.0,77,0.00,,SKC,0.38,218.00,VWS V14.00,2013-09-28 20:20:00,
2013-09-28 15:25:00,57.5,50.0,29.70,WNW,298,7.0,10.0,76,0.00,,SKC,0.38,200.00,VWS V14.00,2013-09-28 20:25:00,
2013-09-28 15:30:00,57.5,49.3,29.71,WSW,250,4.0,12.0,74,0.00,,SKC,0.38,120.00,VWS V14.00,2013-09-28 20:30:00,
2013-09-28 15:35:00,57.4,49.5,29.72,WNW,297,4.0,11.0,75,0.00,,SKC,0.38,200.00,VWS V14.00,2013-09-28 20:35:00,
2013-09-28 15:40:00,57.4,49.2,29.72,WNW,290,3.0,15.0,74,0.00,,SKC,0.38,214.00,VWS V14.00,2013-09-28 20:40:00,
2013-09-28 15:45:00,57.3,49.1,29.72,SW,231,8.0,17.0,74,0.00,,SKC,0.38,162.00,VWS V14.00,2013-09-28 20:45:00,
2013-09-28 15:50:00,57.3,49.1,29.72,WSW,246,3.0,10.0,74,0.00,,SKC,0.38,255.00,VWS V14.00,2013-09-28 20:50:00,
2013-09-28 15:56:00,57.5,49.3,29.72,NW,315,6.0,12.0,74,0.00,,SKC,0.38,251.00,VWS V14.00,2013-09-28 20:56:00,
2013-09-28 16:01:00,57.6,49.4,29.72,NNW,330,3.0,10.0,74,0.00,,SKC,0.38,144.00,VWS V14.00,2013-09-28 21:01:00,
2013-09-28 16:06:00,57.5,48.9,29.72,NW,306,4.0,11.0,73,0.00,,SKC,0.38,158.00,VWS V14.00,2013-09-28 21:06:00,
2013-09-28 16:11:00,57.7,49.1,29.72,NNW,330,3.0,10.0,73,0.00,,SKC,0.38,84.00,VWS V14.00,2013-09-28 21:11:00,
2013-09-28 16:16:00,57.8,49.2,29.72,NW,315,4.0,11.0,73,0.00,,SKC,0.38,448.00,VWS V14.00,2013-09-28 21:16:00,
2013-09-28 16:21:00,58.2,48.8,29.72,WSW,257,4.0,13.0,71,0.00,,SKC,0.38,438.00,VWS V14.00,2013-09-28 21:21:00,
2013-09-28 16:26:00,58.7,49.0,29.73,West,279,2.0,9.0,70,0.00,,SKC,0.38,448.00,VWS V14.00,2013-09-28 21:26:00,
2013-09-28 16:31:00,59.1,49.0,29.72,WSW,239,6.0,9.0,69,0.00,,SKC,0.38,450.00,VWS V14.00,2013-09-28 21:31:00,
2013-09-28 16:36:00,59.4,48.5,29.72,SW,219,6.0,15.0,67,0.00,,SKC,0.38,424.00,VWS V14.00,2013-09-28 21:36:00,
2013-09-28 16:41:00,59.5,48.9,29.72,North,355,3.0,12.0,68,0.00,,SKC,0.38,417.00,VWS V14.00,2013-09-28 21:41:00,
2013-09-28 16:46:00,59.7,47.9,29.72,NNW,336,4.0,13.0,65,0.00,,SKC,0.38,424.00,VWS V14.00,2013-09-28 21:46:00,
2013-09-28 16:51:00,59.8,48.4,29.72,WSW,242,1.0,11.0,66,0.00,,SKC,0.38,381.00,VWS V14.00,2013-09-28 21:51:00,
2013-09-28 16:56:00,60.1,48.7,29.73,SW,219,7.0,7.0,66,0.00,,SKC,0.38,381.00,VWS V14.00,2013-09-28 21:56:00,
2013-09-28 17:01:00,60.4,49.0,29.73,NW,308,3.0,7.0,66,0.00,,SKC,0.38,352.00,VWS V14.00,2013-09-28 22:01:00,
2013-09-28 17:06:00,60.5,48.7,29.73,WNW,296,10.0,10.0,65,0.00,,SKC,0.38,313.00,VWS V14.00,2013-09-28 22:06:00,
2013-09-28 17:11:00,60.5,47.4,29.74,NW,309,7.0,13.0,62,0.00,,SKC,0.38,313.00,VWS V14.00,2013-09-28 22:11:00,
2013-09-28 17:16:00,60.4,47.3,29.74,West,271,3.0,10.0,62,0.00,,SKC,0.38,308.00,VWS V14.00,2013-09-28 22:16:00,
2013-09-28 17:21:00,60.4,49.0,29.74,WSW,251,0.0,4.0,66,0.00,,SKC,0.38,294.00,VWS V14.00,2013-09-28 22:21:00,
2013-09-28 17:26:00,60.6,48.8,29.75,West,281,0.0,7.0,65,0.00,,SKC,0.38,253.00,VWS V14.00,2013-09-28 22:26:00,
2013-09-28 17:31:00,60.6,48.0,29.75,NW,309,10.0,10.0,63,0.00,,SKC,0.38,216.00,VWS V14.00,2013-09-28 22:31:00,
2013-09-28 17:36:00,60.5,47.4,29.75,West,281,2.0,14.0,62,0.00,,SKC,0.38,197.00,VWS V14.00,2013-09-28 22:36:00,
2013-09-28 17:41:00,60.3,47.7,29.76,NNW,342,7.0,10.0,63,0.00,,SKC,0.38,174.00,VWS V14.00,2013-09-28 22:41:00,
2013-09-28 17:46:00,60.1,47.0,29.76,WSW,253,3.0,11.0,62,0.00,,SKC,0.38,156.00,VWS V14.00,2013-09-28 22:46:00,
2013-09-28 17:51:00,59.9,47.3,29.76,SW,232,8.0,11.0,63,0.00,,SKC,0.38,135.00,VWS V14.00,2013-09-28 22:51:00,
2013-09-28 17:56:00,59.8,47.2,29.76,West,265,2.0,7.0,63,0.00,,SKC,0.38,120.00,VWS V14.00,2013-09-28 22:56:00,
2013-09-28 18:01:00,59.7,47.1,29.76,NW,308,2.0,6.0,63,0.00,,SKC,0.38,100.00,VWS V14.00,2013-09-28 23:01:00,
2013-09-28 18:06:00,59.6,47.4,29.77,West,263,5.0,7.0,64,0.00,,SKC,0.38,86.00,VWS V14.00,2013-09-28 23:06:00,
2013-09-28 18:11:00,59.4,47.2,29.77,NW,317,1.0,6.0,64,0.00,,SKC,0.38,70.00,VWS V14.00,2013-09-28 23:11:00,
2013-09-28 18:16:00,59.3,47.1,29.78,NW,312,2.0,13.0,64,0.00,,SKC,0.38,58.00,VWS V14.00,2013-09-28 23:16:00,
2013-09-28 18:22:00,59.1,47.4,29.78,NW,320,2.0,5.0,65,0.00,,SKC,0.38,32.00,VWS V14.00,2013-09-28 23:22:00,
2013-09-28 18:27:00,58.8,47.5,29.78,NNW,331,5.0,5.0,66,0.00,,SKC,0.38,23.00,VWS V14.00,2013-09-28 23:27:00,
2013-09-28 18:32:00,58.6,48.1,29.78,NW,309,3.0,4.0,68,0.00,,SKC,0.38,21.00,VWS V14.00,2013-09-28 23:32:00,
2013-09-28 18:37:00,58.2,47.7,29.78,NNW,327,1.0,5.0,68,0.00,,SKC,0.38,19.00,VWS V14.00,2013-09-28 23:37:00,
2013-09-28 18:42:00,57.9,48.2,29.78,NW,306,0.0,5.0,70,0.00,,SKC,0.38,16.00,VWS V14.00,2013-09-28 23:42:00,
2013-09-28 18:47:00,57.7,48.0,29.78,NW,306,0.0,0.0,70,0.00,,SKC,0.38,14.00,VWS V14.00,2013-09-28 23:47:00,
2013-09-28 18:52:00,57.5,47.8,29.79,NW,306,0.0,0.0,70,0.00,,SKC,0.38,9.00,VWS V14.00,2013-09-28 23:52:00,
2013-09-28 18:57:00,57.3,47.6,29.79,NW,306,0.0,1.0,70,0.00,,SKC,0.38,9.00,VWS V14.00,2013-09-28 23:57:00,
2013-09-28 19:02:00,57.0,47.3,29.80,NW,306,0.0,0.0,70,0.00,,SKC,0.38,5.00,VWS V14.00,2013-09-29 00:02:00,
2013-09-28 19:07:00,56.7,47.0,29.80,NW,306,0.0,0.0,70,0.00,,SKC,0.38,0.00,VWS V14.00,2013-09-29 00:07:00,
2013-09-28 19:12:00,56.4,46.8,29.80,NW,306,0.0,1.0,70,0.00,,SKC,0.38,0.00,VWS V14.00,2013-09-29 00:12:00,
2013-09-28 19:17:00,56.0,47.8,29.80,NW,306,0.0,1.0,74,0.00,,SKC,0.38,0.00,VWS V14.00,2013-09-29 00:17:00,
2013-09-28 19:22:00,55.5,48.1,29.80,NW,306,0.0,0.0,76,0.00,,SKC,0.38,0.00,VWS V14.00,2013-09-29 00:22:00,
2013-09-28 19:27:00,54.9,47.8,29.80,NW,306,0.0,0.0,77,0.00,,SKC,0.38,0.00,VWS V14.00,2013-09-29 00:27:00,
2013-09-28 19:32:00,54.4,47.7,29.80,NW,306,0.0,0.0,78,0.00,,SKC,0.38,0.00,VWS V14.00,2013-09-29 00:32:00,
2013-09-28 19:37:00,53.7,47.3,29.80,NW,306,0.0,0.0,79,0.00,,SKC,0.38,0.00,VWS V14.00,2013-09-29 00:37:00,
2013-09-28 19:42:00,53.1,47.1,29.80,NW,306,0.0,0.0,80,0.00,,SKC,0.38,0.00,VWS V14.00,2013-09-29 00:42:00,
2013-09-28 19:47:00,52.4,46.8,29.80,NW,306,0.0,0.0,81,0.00,,SKC,0.38,0.00,VWS V14.00,2013-09-29 00:47:00,
2013-09-28 19:52:00,51.9,46.9,29.80,NW,306,0.0,1.0,83,0.00,,SKC,0.38,0.00,VWS V14.00,2013-09-29 00:52:00,
2013-09-28 19:57:00,51.4,46.7,29.80,NW,306,0.0,0.0,84,0.00,,SKC,0.38,0.00,VWS V14.00,2013-09-29 00:57:00,
2013-09-28 20:02:00,51.1,46.8,29.80,NW,306,0.0,0.0,85,0.00,,SKC,0.38,0.00,VWS V14.00,2013-09-29 01:02:00,
2013-09-28 20:07:00,50.9,46.9,29.80,NW,306,0.0,1.0,86,0.00,,SKC,0.38,0.00,VWS V14.00,2013-09-29 01:07:00,
2013-09-28 20:12:00,50.7,46.7,29.80,NW,306,0.0,2.0,86,0.00,,SKC,0.38,0.00,VWS V14.00,2013-09-29 01:12:00,
2013-09-28 20:17:00,50.5,46.8,29.80,NW,306,0.0,1.0,87,0.00,,SKC,0.38,0.00,VWS V14.00,2013-09-29 01:17:00,
2013-09-28 20:22:00,50.3,46.6,29.81,NW,306,0.0,0.0,87,0.00,,SKC,0.38,0.00,VWS V14.00,2013-09-29 01:22:00,
2013-09-28 20:27:00,50.2,46.8,29.80,NW,306,0.0,0.0,88,0.00,,SKC,0.38,0.00,VWS V14.00,2013-09-29 01:27:00,
2013-09-28 20:32:00,50.1,46.7,29.81,NW,306,0.0,0.0,88,0.00,,SKC,0.38,0.00,VWS V14.00,2013-09-29 01:32:00,
2013-09-28 20:38:00,49.9,46.5,29.80,NW,306,0.0,0.0,88,0.00,,SKC,0.38,0.00,VWS V14.00,2013-09-29 01:38:00,
2013-09-28 20:43:00,49.6,46.5,29.81,NW,306,0.0,1.0,89,0.00,,SKC,0.38,0.00,VWS V14.00,2013-09-29 01:43:00,
2013-09-28 20:48:00,49.5,46.7,29.81,NW,306,0.0,2.0,90,0.00,,SKC,0.38,0.00,VWS V14.00,2013-09-29 01:48:00,
2013-09-28 20:53:00,49.5,46.7,29.81,NW,306,0.0,1.0,90,0.00,,SKC,0.38,0.00,VWS V14.00,2013-09-29 01:53:00,
2013-09-28 20:58:00,49.5,46.7,29.81,NW,306,0.0,1.0,90,0.00,,SKC,0.38,0.00,VWS V14.00,2013-09-29 01:58:00,
2013-09-28 21:03:00,49.5,46.7,29.81,NW,306,0.0,0.0,90,0.00,,SKC,0.38,0.00,VWS V14.00,2013-09-29 02:03:00,
2013-09-28 21:08:00,49.4,46.6,29.82,NW,306,0.0,2.0,90,0.00,,SKC,0.38,0.00,VWS V14.00,2013-09-29 02:08:00,
2013-09-28 21:13:00,49.3,46.2,29.81,NW,306,1.0,2.0,89,0.00,,SKC,0.38,0.00,VWS V14.00,2013-09-29 02:13:00,
2013-09-28 21:18:00,49.2,46.1,29.81,NW,306,1.0,3.0,89,0.00,,SKC,0.38,0.00,VWS V14.00,2013-09-29 02:18:00,
2013-09-28 21:23:00,49.1,46.0,29.81,NW,306,2.0,2.0,89,0.00,,SKC,0.38,0.00,VWS V14.00,2013-09-29 02:23:00,
2013-09-28 21:28:00,49.0,45.9,29.81,NW,306,1.0,3.0,89,0.00,,SKC,0.38,0.00,VWS V14.00,2013-09-29 02:28:00,
2013-09-28 21:33:00,48.8,45.4,29.81,NW,306,1.0,2.0,88,0.00,,SKC,0.38,0.00,VWS V14.00,2013-09-29 02:33:00,
2013-09-28 21:38:00,48.8,45.4,29.81,NW,306,0.0,2.0,88,0.00,,SKC,0.38,0.00,VWS V14.00,2013-09-29 02:38:00,
2013-09-28 21:43:00,48.8,45.4,29.81,NW,306,0.0,3.0,88,0.00,,SKC,0.38,0.00,VWS V14.00,2013-09-29 02:43:00,
2013-09-28 21:48:00,48.7,45.3,29.81,NW,306,3.0,3.0,88,0.00,,SKC,0.38,0.00,VWS V14.00,2013-09-29 02:48:00,
2013-09-28 21:53:00,48.7,45.3,29.81,SSW,206,2.0,3.0,88,0.00,,SKC,0.38,0.00,VWS V14.00,2013-09-29 02:53:00,
2013-09-28 21:58:00,48.7,45.3,29.81,SSE,164,0.0,4.0,88,0.00,,SKC,0.38,0.00,VWS V14.00,2013-09-29 02:58:00,
2013-09-28 22:03:00,48.7,45.3,29.81,South,169,1.0,4.0,88,0.00,,SKC,0.38,0.00,VWS V14.00,2013-09-29 03:03:00,
2013-09-28 22:08:00,48.8,45.1,29.81,South,169,0.0,1.0,87,0.00,,SKC,0.38,0.00,VWS V14.00,2013-09-29 03:08:00,
2013-09-28 22:13:00,48.9,45.2,29.82,South,169,1.0,1.0,87,0.00,,SKC,0.38,0.00,VWS V14.00,2013-09-29 03:13:00,
2013-09-28 22:18:00,49.0,45.3,29.82,SSE,163,2.0,2.0,87,0.00,,SKC,0.38,0.00,VWS V14.00,2013-09-29 03:18:00,
2013-09-28 22:23:00,49.1,45.1,29.82,South,190,2.0,2.0,86,0.00,,SKC,0.38,0.00,VWS V14.00,2013-09-29 03:23:00,
2013-09-28 22:28:00,49.3,45.0,29.82,South,187,2.0,2.0,85,0.00,,SKC,0.38,0.00,VWS V14.00,2013-09-29 03:28:00,
2013-09-28 22:34:00,49.5,45.2,29.82,SSE,156,1.0,2.0,85,0.00,,SKC,0.38,0.00,VWS V14.00,2013-09-29 03:34:00,
2013-09-28 22:39:00,49.7,45.1,29.82,South,186,5.0,5.0,84,0.00,,SKC,0.38,0.00,VWS V14.00,2013-09-29 03:39:00,
2013-09-28 22:44:00,50.1,45.2,29.82,South,173,2.0,5.0,83,0.00,,SKC,0.38,0.00,VWS V14.00,2013-09-29 03:44:00,
2013-09-28 22:49:00,50.3,45.3,29.82,South,183,2.0,3.0,83,0.00,,SKC,0.38,0.00,VWS V14.00,2013-09-29 03:49:00,
2013-09-28 22:54:00,50.5,45.2,29.82,SSE,158,2.0,4.0,82,0.00,,SKC,0.38,0.00,VWS V14.00,2013-09-29 03:54:00,
2013-09-28 22:59:00,50.7,45.4,29.82,South,178,1.0,3.0,82,0.00,,SKC,0.38,0.00,VWS V14.00,2013-09-29 03:59:00,
2013-09-28 23:02:00,50.7,45.4,29.82,South,184,1.0,6.0,82,0.00,,SKC,0.38,0.00,VWS V14.00,2013-09-29 04:02:00,
2013-09-28 23:03:00,50.7,45.4,29.82,SSE,157,3.0,6.0,82,0.00,,SKC,0.38,0.00,VWS V14.00,2013-09-29 04:03:00,
2013-09-28 23:04:00,50.8,45.5,29.82,SSE,161,3.0,4.0,82,0.00,,SKC,0.38,0.00,VWS V14.00,2013-09-29 04:04:00,
2013-09-28 23:06:00,50.8,45.5,29.82,South,171,6.0,7.0,82,0.00,,SKC,0.38,0.00,VWS V14.00,2013-09-29 04:06:00,
2013-09-28 23:09:00,50.8,45.5,29.83,South,183,7.0,10.0,82,0.00,,SKC,0.38,0.00,VWS V14.00,2013-09-29 04:09:00,
2013-09-28 23:14:00,50.8,45.2,29.83,South,186,1.0,5.0,81,0.00,,SKC,0.38,0.00,VWS V14.00,2013-09-29 04:14:00,
2013-09-28 23:19:00,50.8,45.2,29.82,South,186,2.0,2.0,81,0.00,,SKC,0.38,0.00,VWS V14.00,2013-09-29 04:19:00,
2013-09-28 23:24:00,50.7,45.4,29.83,South,186,0.0,2.0,82,0.00,,SKC,0.38,0.00,VWS V14.00,2013-09-29 04:24:00,
2013-09-28 23:29:00,50.5,45.2,29.83,South,186,1.0,2.0,82,0.00,,SKC,0.38,0.00,VWS V14.00,2013-09-29 04:29:00,
2013-09-28 23:34:00,50.4,45.1,29.83,South,181,0.0,3.0,82,0.00,,SKC,0.38,0.00,VWS V14.00,2013-09-29 04:34:00,
2013-09-28 23:39:00,50.3,45.0,29.83,South,190,2.0,3.0,82,0.00,,SKC,0.38,0.00,VWS V14.00,2013-09-29 04:39:00,
2013-09-28 23:44:00,50.2,45.2,29.83,SE,140,2.0,4.0,83,0.00,,SKC,0.38,0.00,VWS V14.00,2013-09-29 04:44:00,
2013-09-28 23:49:00,50.0,45.0,29.83,South,184,3.0,5.0,83,0.00,,SKC,0.38,0.00,VWS V14.00,2013-09-29 04:49:00,
2013-09-28 23:54:00,50.1,45.2,29.83,South,179,4.0,4.0,83,0.00,,SKC,0.38,0.00,VWS V14.00,2013-09-29 04:54:00,
2013-09-28 23:59:00,50.1,44.8,29.83,SSE,150,4.0,6.0,82,0.00,,SKC,0.38,0.00,VWS V14.00,2013-09-29 04:59:00,